Location: Unspecified
(0.0000°N, 0.0000°E)
Time: 13:06:24
(UTC+00:00)

Daily predictions for brighter satellites

Satellite Brightness Start Highest point End
(mag) Time Altitude Azimuth Time Altitude Azimuth Time Altitude Azimuth
ARIANE 5 R/B 2.2 18:06:23 10° WSW 18:08:59 73° S 18:18:11 10° E
Delta 202 3.8 18:12:06 10° WNW 18:17:23 71° SSW 18:23:05 10° ESE
OAO 3 Copernicus 4.4 18:14:58 10° SW 18:19:59 62° SE 18:25:00 10° ENE
Cosmos 1544 Rocket 3.5 18:15:48 10° S 18:20:08 67° E 18:24:27 10° N
Cosmos 1536 4.0 18:16:28 10° SSW 18:20:20 49° W 18:24:11 10° N
Cosmos 1484 Rocket 3.2 18:18:13 10° SSE 18:21:46 38° E 18:25:15 10° N
Helios 1B rocket 2.4 18:18:59 10° NNE 18:23:03 70° ESE 18:27:09 10° S
Cosmos 1656 3.8 18:17:21 10° SSW 18:23:04 90° NNW 18:28:41 10° NNE
CZ-2C R/B 3.3 18:24:07 10° S 18:29:05 56° WSW 18:34:07 10° NNW
IDEFIX/ARIANE 42P 3.0 18:24:10 10° S 18:29:19 68° WSW 18:34:27 10° NNW
Skynet4D Del rocket 4.2 18:26:43 10° WSW 18:32:56 80° NNW 18:40:08 10° ENE
Meteor 2-4 Rocket 4.4 18:28:25 10° NNE 18:33:41 34° E 18:38:55 10° SSE
Resurs 01 Rocket 3.1 18:33:46 10° ESE 18:36:38 17° ENE 18:39:27 10° NE
Ariane H10 3.2 18:36:15 10° W 18:39:09 76° N 18:46:03 12° E
ATLAS 2AS CENTAUR R/B 3.8 18:35:06 10° NW 18:42:05 48° WSW 18:48:28 10° S
SAR-Lupe-1 4.0 18:40:02 10° SSE 18:43:35 67° ENE 18:47:06 10° N
COSMOS 2441 4.4 18:39:05 10° SSE 18:43:59 89° WSW 18:48:53 10° NNW
Cosmos 2322 Rocket 3.6 18:42:40 10° SE 18:45:40 15° ESE 18:46:01 15° ESE
SL-19 R/B 4.5 18:43:04 10° SSE 18:49:29 82° ENE 18:55:24 10° NNW
Spot 2 Rocket 4.3 18:46:24 10° SE 18:50:49 30° ENE 18:55:11 10° NNE
PAYLOAD A 4.5 18:46:56 10° W 18:50:52 58° N 19:01:18 13° ENE
Cosmos 1605 Rocket 4.0 18:45:40 10° S 18:52:03 73° E 18:58:21 10° N
BREEZE-M DEB (TANK) 4.3 18:56:37 10° NW 19:00:34 88° SW 19:17:24 10° SE
ARIANE 44L R/B 4.1 18:58:45 10° WSW 19:02:13 45° S 19:09:31 20° ESE
Cosmos 2360 4.2 18:58:59 10° S 19:04:33 56° ESE 19:10:07 10° NNE
Cosmos 2227 Rocket 3.7 19:01:12 10° NNE 19:04:05 17° ENE 19:04:05 17° ENE
Meteor 1-23 Rocket 4.2 19:00:21 10° N 19:06:03 70° E 19:11:51 10° SSE
Cosmos 1500 3.2 19:05:51 10° S 19:09:30 49° E 19:13:07 10° NNE
Cosmos 1975 2.8 19:05:33 10° S 19:09:39 84° W 19:13:44 10° N
SWAS 4.4 19:08:56 10° S 19:13:08 58° ESE 19:17:22 10° NNE
ARIANE 5 DEB (SYLDA 5A) 1.2 19:12:14 10° W 19:14:12 77° S 19:14:12 77° S
ARIANE 5 DEB (SYLDA) 4.2 19:02:08 10° W 19:15:23 67° N 19:17:40 32° ENE
BREEZE-M DEB 3.9 19:12:41 10° NW 19:15:46 69° WSW 19:15:46 69° WSW
Cosmos 2061 Rocket 4.4 19:13:13 10° SSE 19:19:07 39° E 19:24:56 10° NNE
Cosmos 2297 Rocket 4.2 19:16:12 10° NE 19:16:49 12° NE 19:16:49 12° NE
ALOS 4.0 19:22:05 17° NE 19:22:05 17° NE 19:23:31 10° NNE
SJ-6B 3.8 19:16:29 10° S 19:20:06 44° WSW 19:23:39 10° NNW
METEOR-M 4.0 19:16:55 10° SSE 19:22:15 72° ENE 19:27:33 10° N
Cosmos 1459 Rocket 4.0 19:21:56 10° SSE 19:27:45 49° E 19:33:32 10° NNE
HETE-2 4.4 19:25:30 10° W 19:29:43 84° S 19:29:53 80° SE
Sylda 4400 4.5 19:30:31 10° WNW 19:31:38 25° WNW 19:31:38 25° WNW
Cosmos 1763 Rocket 3.6 19:28:08 10° SSW 19:33:19 74° WNW 19:38:25 10° N
Abrixas rocket 3.9 19:39:17 10° SW 19:41:28 33° WSW 19:41:28 33° WSW
SL-16 R/B 2.6 19:38:24 10° S 19:42:31 46° SSE 19:42:31 46° SSE
Resurs 1-3 3.6 19:44:00 72° SW 19:44:13 75° WSW 19:48:34 10° NNW
ARIANE 5 R/B 4.1 19:42:26 10° WNW 19:44:24 19° NW 19:44:24 19° NW
Yuri Rocket 4.0 19:40:01 10° SW 19:45:31 57° SSE 19:45:50 56° SE
Cosmos 2123 Rocket 4.0 19:40:45 10° N 19:46:54 80° W 19:53:09 10° S
CZ-3B DEB 4.1 19:20:39 10° NNW 19:48:44 63° NE 19:53:06 44° ESE
BREEZE-M DEB (TANK) 4.4 19:39:38 10° NW 19:52:56 53° NE 19:53:08 52° NE
Ariane H10-3 3.0 19:48:39 10° W 19:53:15 40° WNW 19:53:15 40° WNW
Cosmos 1980 Rocket 4.3 19:50:13 10° SW 19:54:45 25° WNW 19:59:18 10° NNW
NOSS 3-4 (A) 3.8 20:01:01 10° NNW 20:08:25 79° ENE 20:08:25 79° ENE
NOSS 3-4 (C) 3.8 20:01:09 10° NNW 20:08:28 78° NE 20:08:28 78° NE
Resurs 01 Rocket 4.0 20:10:16 13° SW 20:12:49 21° WSW 20:16:07 10° NW
Cosmos 1802 Rocket 4.2 20:06:51 10° S 20:13:07 69° W 20:19:28 10° N
Cosmos 2322 Rocket 3.6 20:24:19 10° SW 20:28:08 32° WSW 20:28:08 32° WSW
Cosmos 2227 Rocket 4.3 20:43:44 10° NW 20:45:59 21° WNW 20:45:59 21° WNW
